Location: Recife
(8.0585°S, 34.8848°W)
Time: 14:40:03
(UTC-03:00)

Tiros 1 despin weight - Pass Details

Date: 17 April 2026
Orbit: 555 x 591 km, 48.2° (Epoch: 14 May)

Event Time Altitude Azimuth Distance (km) Brightness Sun altitude
Rises 01:14:01 0° 307° (NW) 2,806 - -61.6°
Reaches altitude 10° 01:16:23 10° 300° (WNW) 1,908 - -61.0°
Maximum altitude 01:20:31 41° 229° (SW) 856 - -60.0°
Drops below altitude 10° 01:24:39 10° 158° (SSE) 1,907 - -59.0°
Sets 01:27:02 0° 151° (SSE) 2,804 - -58.4°
